軌道要素
Epoch 2021 Jan. 26.0 TT = JDT 2459240.5
T 2021 Jan. 24.45493 TT Rudenko
q 2.4387990 (2000.0) P Q
n 0.07021721 Peri. 46.67841 -0.54778019 -0.80998858
a 5.8188926 Node 77.67537 +0.69210057 -0.57935997
e 0.5808826 Incl. 12.37779 +0.47003582 -0.09088740
P 14.0
From 229 observations 2007 Jan. 17-2021 Apr. 16, mean residual 0".9.
|